Temp
4 4 4 4 3 4 4 4 4 5 5 4 4 4 5 5 5 5 6 6 7 8 9 9 9 9 9 8 7 7 8 8 8 8 9 9 11 11 12 12 11 11 12 12 12 12 12
4 4 4 4 3 4 3 4 4 5 5 6 6 5 5 6 6 6 6 7 7 9 9 9 9 9 9 8 7 7 7 8 8 9 9 10 10 10 11 12 11 12 11 11 12 12 12
5 4 4 4 3 3 4 5 6 5 5 5 6 7 7 6 6 7 7 8 8 8 9 9 9 9 9 7 8 8 8 8 8 8 9 9 9 9 11 11 11 11 10 11 12 13 13
7 5 4 4 4 4 4 5 6 6 6 6 6 7 7 7 8 7 8 8 9 9 9 9 9 9 7 8 8 8 9 8 8 8 8 8 8 9 10 11 11 11 11 9 12 13 13
7 7 5 4 6 6 5 6 7 7 6 6 6 6 7 7 7 8 8 8 9 9 9 9 10 10 8 8 9 8 8 9 9 8 8 8 8 9 10 10 10 11 9 10 11 13 13
8 7 7 6 5 7 7 6 7 7 8 7 7 6 7 6 7 7 8 9 9 9 9 10 10 10 9 9 8 8 8 8 9 9 9 9 9 10 10 9 7 9 8 9 10 11 12
8 8 7 7 6 7 8 8 7 8 8 8 8 8 7 7 8 8 8 9 10 10 9 9 9 9 9 8 8 8 8 9 9 10 10 11 9 9 11 11 11 10 10 9 10 11 12
9 8 8 8 7 7 7 8 9 8 8 8 8 9 9 9 9 9 9 8 7 7 9 9 9 8 8 9 10 9 8 10 10 9 11 10 8 11 11 11 10 10 9 9 11 12 12
9 9 9 8 8 7 7 8 9 9 9 9 9 9 9 9 10 10 10 9 8 8 9 9 9 9 9 9 10 10 9 9 10 10 10 9 10 12 11 10 10 10 9 8 9 10 10
8 8 9 9 8 8 8 7 8 8 9 9 9 9 9 9 9 9 9 9 9 9 8 10 11 10 9 9 10 9 9 8 10 10 9 9 12 10 10 10 10 8 10 9 9 8 7
9 9 9 9 9 9 9 8 8 8 8 9 9 10 10 9 9 8 8 8 9 8 10 11 11 10 9 9 10 10 9 9 9 10 10 9 10 9 9 10 10 8 10 8 8 8 8
9 9 9 9 9 9 9 9 9 9 8 9 9 10 10 10 9 9 9 9 8 8 10 9 11 11 11 11 11 10 9 9 9 9 9 9 11 9 9 10 10 10 9 9 8 8 6
10 10 9 9 9 9 9 9 9 9 9 9 9 9 9 9 9 9 9 8 7 9 10 10 10 11 11 11 11 11 10 10 8 6 8 10 10 10 10 8 9 9 9 6 6 7 8
10 10 9 9 9 9 9 9 9 10 10 10 10 10 9 9 9 9 8 9 8 11 10 11 10 11 10 11 11 11 10 10 9 8 6 7 6 10 10 9 8 8 8 7 7 8 9
10 10 10 9 9 9 9 9 10 10 10 11 11 10 10 10 9 9 8 6 10 11 10 10 11 10 13 11 10 10 11 9 9 8 6 6 9 10 9 9 9 9 7 9 7 6 6
10 10 10 9 9 9 9 9 9 10 10 11 10 10 9 9 9 9 7 8 11 10 10 10 11 11 11 12 10 11 12 9 9 8 8 8 5 10 10 9 8 8 9 7 7 6 8
10 10 9 9 9 8 9 9 9 9 10 11 10 9 10 10 9 8 6 10 11 9 9 10 11 11 12 11 11 11 11 8 9 8 8 7 7 8 9 8 9 7 7 8 5 6 5
10 10 10 9 7 8 8 8 9 9 10 10 9 9 10 10 9 10 8 10 9 10 8 9 9 9 10 10 10 10 10 10 7 7 7 6 5 3 9 8 8 8 8 7 4 6 5
10 10 10 9 8 7 7 8 8 8 9 9 8 9 9 10 8 9 9 10 9 9 9 10 10 10 10 9 8 10 10 7 7 7 6 6 3 1 8 7 7 6 8 8 3 2 4
9 9 9 8 7 7 7 8 7 7 7 9 8 7 9 9 9 9 11 11 10 8 8 9 9 9 9 9 9 9 9 8 7 6 5 5 3 3 4 6 6 6 7 7 4 1 4
8 8 8 7 7 7 7 7 7 7 7 8 8 8 7 7 9 9 9 11 10 10 7 8 9 8 9 9 10 9 10 9 6 5 4 4 -0 4 4 6 6 5 5 6 3 4 2
7 8 8 8 7 7 7 7 7 7 7 7 8 7 7 7 8 8 8 10 10 11 10 9 8 10 9 8 10 8 8 8 8 5 6 4 0 -0 -2 5 6 5 6 6 6 5 5
7 7 7 7 7 7 7 7 7 6 6 6 6 6 6 8 9 9 10 10 11 10 10 10 9 8 8 8 7 7 7 7 7 6 5 3 1 0 3 7 3 2 4 6 7 7 7
7 7 7 7 7 6 6 7 6 6 6 5 5 6 6 6 7 9 10 10 9 9 8 9 8 7 6 6 7 6 5 5 6 5 5 4 1 2 2 3 5 10 9 8 7 9 8
5 6 7 6 6 6 6 6 6 6 6 6 5 4 5 6 8 8 10 10 9 9 7 7 7 7 6 6 5 6 5 5 5 5 4 3 2 1 2 3 8 10 7 7 7 8 9
5 5 6 6 6 6 6 6 6 6 6 5 5 4 4 4 6 7 8 9 7 7 7 7 5 5 5 5 6 6 7 10 5 3 1 4 3 0 2 4 8 12 9 10 10 8 11
5 5 5 5 5 6 5 5 5 5 5 5 5 4 3 2 5 6 7 7 8 8 7 6 4 3 4 4 4 4 7 8 7 5 -0 -0 -0 1 1 3 6 10 8 9 11 11 11
4 4 4 5 5 5 6 5 5 5 5 5 5 5 4 2 5 6 6 6 7 7 7 5 5 3 2 3 3 4 6 7 7 7 3 3 2 2 3 3 5 8 7 8 11 13 13
3 3 3 4 4 4 4 5 5 5 4 4 5 5 5 2 3 6 7 7 6 6 6 6 7 6 5 4 3 4 3 2 5 6 9 6 8 8 6 7 9 9 11 12 12 11 12
Height
1527 1522 1519 1513 1507 1503 1498 1494 1490 1483 1480 1478 1477 1477 1477 1477 1476 1475 1476 1480 1483 1488 1491 1492 1495 1497 1496 1499 1504 1505 1505 1507 1508 1508 1508 1508 1508 1506 1505 1505 1507 1506 1503 1503 1503 1502 1502
1530 1526 1522 1517 1511 1506 1502 1498 1497 1491 1488 1486 1483 1482 1480 1479 1479 1481 1483 1487 1492 1493 1494 1496 1498 1499 1501 1502 1507 1508 1508 1509 1509 1510 1509 1510 1510 1509 1507 1505 1506 1503 1503 1503 1501 1499 1498
1533 1529 1524 1520 1516 1511 1506 1503 1501 1498 1495 1492 1489 1488 1487 1487 1487 1489 1491 1494 1496 1497 1499 1501 1501 1502 1502 1508 1509 1510 1510 1510 1508 1509 1509 1510 1510 1509 1507 1503 1502 1503 1503 1498 1493 1491 1492
1537 1532 1528 1524 1520 1517 1512 1509 1509 1506 1502 1500 1498 1496 1495 1495 1496 1498 1499 1499 1501 1501 1502 1503 1503 1503 1508 1509 1510 1511 1511 1510 1509 1510 1510 1509 1508 1507 1505 1505 1502 1499 1498 1500 1488 1489 1490
1541 1537 1532 1528 1525 1521 1517 1514 1511 1512 1511 1507 1505 1504 1504 1503 1503 1502 1503 1505 1506 1506 1507 1506 1507 1507 1511 1512 1512 1512 1511 1511 1511 1509 1508 1508 1508 1506 1504 1502 1500 1492 1500 1498 1492 1488 1490
1547 1542 1538 1533 1529 1526 1523 1520 1517 1517 1516 1516 1514 1513 1511 1510 1510 1508 1508 1508 1509 1510 1509 1508 1509 1511 1514 1514 1512 1511 1511 1510 1510 1509 1506 1506 1505 1502 1499 1500 1508 1500 1506 1500 1493 1490 1488
1552 1547 1542 1538 1534 1531 1528 1527 1523 1521 1519 1522 1521 1521 1520 1518 1516 1514 1512 1511 1515 1515 1512 1514 1515 1513 1514 1514 1513 1512 1511 1510 1509 1507 1504 1502 1505 1501 1493 1492 1492 1493 1493 1494 1490 1486 1484
1555 1551 1547 1543 1540 1535 1532 1531 1530 1528 1525 1524 1523 1524 1524 1523 1522 1520 1518 1517 1521 1523 1520 1518 1517 1516 1515 1514 1513 1512 1511 1511 1508 1506 1502 1503 1504 1496 1494 1494 1494 1493 1494 1493 1484 1481 1481
1557 1555 1552 1547 1544 1541 1537 1534 1533 1532 1530 1528 1527 1526 1525 1525 1524 1522 1522 1523 1524 1524 1522 1521 1519 1518 1517 1515 1514 1513 1513 1510 1507 1505 1502 1504 1498 1495 1495 1494 1493 1491 1493 1497 1492 1486 1483
1560 1557 1555 1552 1548 1545 1543 1539 1537 1535 1533 1532 1531 1529 1527 1525 1527 1523 1522 1522 1522 1522 1525 1525 1521 1520 1519 1517 1515 1513 1513 1513 1508 1506 1504 1502 1495 1497 1497 1495 1495 1496 1491 1491 1493 1492 1494
1562 1560 1557 1555 1552 1548 1546 1544 1541 1538 1536 1534 1533 1532 1530 1528 1527 1527 1526 1523 1522 1521 1524 1524 1521 1520 1518 1520 1518 1514 1514 1513 1511 1507 1508 1504 1498 1498 1498 1495 1495 1496 1492 1494 1492 1492 1489
1563 1561 1559 1556 1554 1552 1548 1545 1544 1541 1539 1537 1535 1534 1532 1531 1528 1527 1526 1524 1522 1526 1528 1524 1520 1518 1517 1516 1516 1515 1514 1513 1510 1508 1504 1501 1498 1499 1498 1496 1495 1493 1491 1491 1491 1491 1495
1564 1561 1559 1557 1555 1553 1551 1548 1545 1543 1541 1538 1535 1533 1531 1529 1528 1525 1524 1524 1528 1526 1525 1521 1518 1517 1516 1512 1513 1514 1512 1510 1514 1518 1505 1496 1493 1495 1496 1496 1492 1493 1493 1500 1499 1494 1483
1565 1562 1559 1557 1555 1552 1550 1548 1546 1542 1539 1536 1533 1531 1531 1529 1526 1523 1524 1524 1527 1518 1518 1516 1515 1513 1514 1512 1510 1511 1512 1511 1512 1512 1513 1510 1507 1493 1494 1496 1497 1495 1493 1498 1493 1486 1477
1564 1562 1560 1557 1554 1552 1550 1547 1545 1541 1538 1534 1531 1529 1528 1527 1526 1525 1525 1530 1521 1518 1521 1519 1514 1513 1504 1509 1513 1510 1506 1511 1514 1515 1517 1512 1497 1492 1493 1495 1498 1490 1495 1491 1494 1490 1494
1564 1561 1558 1556 1554 1551 1549 1546 1544 1541 1537 1533 1530 1528 1527 1527 1525 1526 1528 1526 1520 1521 1522 1521 1517 1514 1512 1506 1509 1506 1504 1511 1513 1517 1516 1509 1516 1489 1492 1494 1494 1495 1493 1497 1492 1499 1482
1562 1560 1557 1555 1552 1550 1547 1545 1542 1539 1536 1532 1529 1528 1526 1525 1524 1525 1532 1522 1520 1521 1522 1523 1518 1516 1510 1510 1509 1505 1504 1511 1512 1513 1515 1513 1511 1497 1491 1493 1488 1495 1494 1492 1498 1494 1500
1561 1558 1556 1553 1551 1549 1546 1544 1541 1537 1535 1532 1530 1529 1526 1525 1526 1524 1524 1522 1523 1521 1522 1522 1522 1519 1516 1513 1512 1507 1504 1503 1509 1512 1510 1513 1515 1516 1488 1487 1488 1489 1488 1491 1505 1492 1493
1559 1556 1553 1551 1549 1547 1545 1543 1540 1537 1534 1532 1530 1529 1525 1524 1526 1521 1521 1521 1520 1521 1521 1519 1516 1515 1514 1514 1516 1506 1504 1505 1507 1509 1510 1510 1516 1525 1492 1494 1490 1490 1486 1487 1499 1505 1496
1556 1553 1551 1549 1548 1545 1544 1542 1539 1537 1535 1534 1531 1531 1526 1524 1523 1522 1518 1515 1517 1518 1519 1520 1517 1516 1514 1510 1508 1507 1504 1505 1507 1508 1510 1512 1512 1512 1506 1489 1487 1489 1484 1484 1494 1508 1489
1552 1550 1547 1546 1545 1544 1541 1540 1538 1537 1535 1534 1533 1531 1529 1526 1522 1523 1522 1517 1515 1517 1518 1517 1515 1515 1512 1511 1505 1506 1504 1505 1508 1508 1509 1511 1522 1504 1497 1485 1483 1482 1482 1481 1488 1484 1493
1548 1547 1545 1543 1541 1540 1539 1537 1536 1534 1534 1533 1532 1533 1531 1526 1523 1522 1520 1515 1513 1511 1515 1514 1514 1508 1511 1513 1507 1509 1507 1507 1504 1509 1507 1506 1517 1513 1509 1480 1478 1478 1470 1469 1472 1472 1471
1543 1542 1541 1540 1538 1536 1536 1535 1534 1533 1531 1531 1530 1530 1530 1524 1520 1520 1513 1510 1509 1512 1508 1509 1511 1512 1511 1509 1506 1505 1504 1503 1503 1505 1506 1508 1511 1514 1499 1478 1485 1484 1459 1454 1453 1451 1453
1539 1537 1536 1536 1535 1533 1532 1531 1531 1530 1529 1529 1528 1529 1529 1522 1519 1517 1513 1512 1509 1508 1509 1506 1507 1508 1506 1506 1505 1500 1497 1498 1500 1501 1505 1507 1512 1508 1506 1492 1486 1440 1437 1440 1442 1438 1440
1533 1532 1531 1530 1530 1530 1528 1526 1527 1526 1526 1524 1524 1526 1525 1520 1515 1512 1510 1510 1510 1508 1506 1505 1505 1503 1502 1504 1504 1498 1498 1495 1492 1497 1500 1506 1509 1510 1508 1502 1462 1437 1442 1441 1441 1434 1424
1527 1526 1526 1525 1525 1525 1524 1524 1521 1522 1522 1521 1519 1519 1521 1522 1511 1509 1507 1506 1507 1506 1504 1500 1500 1500 1503 1503 1503 1502 1496 1478 1491 1500 1500 1499 1504 1513 1502 1497 1469 1435 1437 1435 1435 1441 1416
1518 1518 1519 1518 1518 1519 1518 1518 1518 1516 1516 1516 1514 1514 1513 1512 1506 1506 1506 1504 1503 1502 1501 1501 1500 1500 1500 1501 1505 1504 1490 1481 1485 1486 1505 1508 1508 1505 1502 1495 1460 1429 1433 1438 1439 1428 1413
1511 1510 1510 1510 1510 1511 1510 1510 1510 1511 1510 1510 1507 1507 1506 1499 1495 1496 1496 1498 1498 1499 1498 1500 1502 1499 1501 1501 1499 1492 1485 1479 1480 1471 1481 1482 1492 1490 1485 1484 1467 1426 1436 1438 1420 1413 1411
1502 1501 1501 1502 1501 1501 1502 1502 1502 1503 1504 1502 1499 1501 1499 1494 1486 1483 1485 1484 1485 1486 1492 1492 1487 1487 1485 1488 1486 1483 1486 1483 1475 1476 1459 1469 1455 1454 1454 1438 1416 1416 1412 1413 1413 1412 1413
Wind_Speed
30 30 31 30 28 29 28 29 28 28 26 27 24 21 17 12 10 15 22 27 26 17 15 15 18 16 13 14 9 7 6 8 5 6 5 4 3 3 4 1 2 7 6 4 8 11 12
30 30 30 30 28 29 28 28 28 28 27 28 26 24 24 19 20 27 28 26 22 17 17 18 16 16 13 18 8 9 7 6 2 3 3 4 4 4 8 4 3 6 9 13 14 16 17
31 29 28 29 28 29 28 29 29 28 27 27 31 32 34 32 31 28 28 26 18 13 15 16 20 19 16 9 8 4 4 2 3 2 1 2 3 5 5 5 5 10 10 10 15 9 2
32 30 27 27 28 28 29 30 29 24 24 24 28 29 29 30 29 24 26 20 18 16 16 16 13 8 7 9 6 6 3 3 1 1 1 3 4 7 9 7 11 7 8 4 7 3 4
31 30 28 26 28 28 28 29 29 28 25 21 24 26 25 22 24 25 25 22 18 15 14 12 9 6 6 8 4 2 2 1 3 5 5 5 4 8 6 7 6 8 4 5 5 4 6
29 29 29 25 25 26 25 26 27 26 25 26 22 20 19 18 19 22 24 22 19 11 7 9 7 5 3 2 2 2 3 3 3 6 11 5 7 4 6 3 3 4 3 7 7 3 6
29 27 27 27 24 23 23 23 23 23 22 21 22 22 18 13 12 15 12 7 6 7 20 11 8 12 5 1 3 2 3 4 5 8 5 1 3 6 7 5 8 9 10 8 8 13 9
27 25 24 24 24 22 21 20 19 19 18 17 15 14 12 9 8 8 13 14 11 4 6 9 8 7 3 4 2 2 5 4 9 7 8 2 7 8 8 8 9 9 10 11 11 10 6
24 23 22 21 21 21 19 17 16 14 13 12 11 11 14 16 19 19 19 18 13 6 5 3 4 4 2 5 3 4 5 9 9 6 6 5 10 6 8 8 11 10 7 10 8 9 9
21 21 20 18 17 17 17 16 16 14 12 10 8 7 7 8 4 8 11 14 16 4 2 7 5 3 3 5 2 2 3 4 4 3 6 6 4 5 8 9 8 8 5 7 11 7 4
22 19 18 17 15 13 13 13 13 12 12 12 10 7 6 3 2 5 9 15 13 4 2 4 3 4 4 4 9 2 5 4 7 10 3 6 4 8 8 5 6 5 3 3 8 7 9
22 19 17 16 15 13 11 11 12 11 11 9 7 6 3 2 6 7 13 15 2 1 1 2 3 3 7 5 1 5 4 4 6 5 6 12 14 2 6 8 6 8 4 5 6 5 3
20 21 18 15 15 14 12 10 10 12 13 13 12 8 7 10 9 13 11 4 2 3 3 3 2 4 6 4 3 2 5 2 3 5 3 5 8 4 1 8 5 8 1 2 3 3 4
18 19 20 18 14 14 13 13 13 13 15 17 14 13 13 14 11 7 2 1 3 2 2 1 3 6 4 4 2 3 5 2 5 6 4 3 4 5 3 1 4 6 2 2 4 2 1
21 19 19 19 18 15 14 14 14 15 16 17 14 12 11 13 8 2 1 3 1 1 2 4 7 4 4 4 3 4 5 2 2 5 3 4 3 3 3 0 1 2 1 3 3 5 2
19 19 18 18 19 18 16 16 16 16 17 17 14 10 8 12 4 0 2 3 1 2 2 2 3 1 4 4 1 2 0 3 2 0 4 2 5 0 3 2 6 4 4 2 2 2 4
19 18 18 17 18 20 18 16 17 17 17 16 10 5 3 10 1 1 1 2 1 3 1 2 5 5 5 4 2 3 1 4 2 1 2 5 3 3 1 6 1 4 2 4 1 2 2
18 19 18 17 17 18 20 18 16 17 17 15 6 3 4 6 1 2 1 3 2 3 4 3 3 5 6 4 4 4 2 3 6 0 3 4 4 4 4 4 3 3 2 1 1 2 4
18 18 19 18 16 17 18 20 16 16 18 18 8 6 4 2 1 2 3 3 3 4 5 2 4 4 3 3 4 5 2 7 6 2 1 3 3 4 1 2 1 4 5 4 4 0 5
16 18 18 17 15 16 17 19 19 14 13 15 4 3 3 2 3 3 3 5 3 5 3 3 4 1 4 5 7 4 3 3 7 3 3 1 3 6 5 4 3 5 5 7 6 3 3
19 17 18 17 17 15 16 17 18 16 11 10 2 2 2 3 0 5 1 4 4 3 5 6 3 8 4 4 5 5 4 2 8 6 5 2 4 5 11 16 11 9 8 9 11 11 4
17 18 18 18 18 17 15 17 18 16 12 6 1 3 4 7 6 5 4 3 3 3 3 4 5 4 6 4 4 5 6 2 3 6 3 4 4 4 6 8 7 10 11 14 14 13 16
15 16 17 18 17 17 15 16 17 16 12 4 3 4 3 6 3 2 3 4 0 2 7 6 3 5 7 6 7 9 10 11 4 1 3 6 1 3 5 2 6 8 11 18 8 7 16
17 16 17 18 17 16 14 15 16 16 14 10 9 4 3 4 4 4 7 3 4 8 4 1 5 3 3 8 15 15 12 13 12 9 8 2 3 1 5 6 4 5 3 3 17 7 14
22 19 18 19 19 19 16 13 16 16 16 14 13 8 4 4 7 11 14 11 12 11 4 7 10 7 6 6 4 6 2 1 5 5 7 6 3 3 1 2 10 3 3 5 6 8 16
25 25 22 19 19 20 21 20 15 17 18 19 15 14 9 3 4 4 8 7 3 5 3 7 8 8 3 2 1 3 3 2 3 3 6 3 5 1 3 1 4 1 2 1 2 5 5
28 25 26 25 24 24 25 25 22 18 19 21 22 18 15 10 23 19 8 5 4 4 3 2 3 3 8 3 3 4 4 2 4 6 5 2 3 6 5 4 9 3 8 5 1 6 8
35 30 27 30 30 30 28 26 25 23 20 24 28 25 25 13 25 28 21 13 11 7 3 3 1 4 3 3 3 4 3 3 3 4 6 8 7 5 4 4 9 13 6 6 4 0 12
25 28 29 31 32 33 32 30 30 28 25 24 34 30 30 33 14 13 22 27 27 30 22 12 6 5 10 3 3 0 2 1 4 4 1 4 7 4 9 7 5 26 14 14 9 3 7
Wind_Direction
21 26 27 26 31 31 33 37 41 46 55 61 67 70 62 69 77 83 118 125 121 113 108 99 101 100 86 85 89 120 92 90 50 42 25 19 309 324 261 323 251 234 282 268 264 264 265
22 27 31 28 31 37 37 43 42 48 56 61 64 61 60 60 81 106 111 119 113 100 89 105 111 103 101 79 76 86 67 57 70 35 35 15 18 341 298 261 232 335 300 287 277 269 262
25 26 31 31 34 37 42 52 51 48 57 68 74 73 74 78 86 91 100 109 132 119 124 121 101 88 92 88 92 101 83 120 87 103 322 308 310 312 321 297 303 275 276 271 257 251 3
31 31 32 33 41 44 50 57 48 49 52 70 78 84 88 95 99 100 117 125 123 115 114 106 89 76 77 101 112 83 62 46 63 317 301 295 308 291 265 292 270 250 244 299 50 43 178
31 35 35 36 47 53 59 60 54 48 54 68 78 81 96 89 90 95 101 97 96 97 107 73 54 87 95 69 99 44 56 256 284 288 284 273 297 256 266 250 285 221 271 228 276 234 252
25 36 38 42 47 55 57 62 63 60 63 68 71 75 85 85 97 99 97 95 83 55 21 59 31 66 74 65 319 258 271 282 291 286 267 225 216 266 245 197 266 318 264 297 268 200 258
25 29 39 41 51 55 59 61 64 69 74 72 80 82 80 64 82 97 93 80 69 31 53 61 59 90 97 250 42 324 287 290 270 269 265 267 321 276 318 334 321 306 284 272 272 281 244
27 24 34 40 44 54 62 65 61 64 72 79 78 64 56 78 81 40 62 66 59 86 54 55 60 60 57 55 258 12 9 317 335 300 312 281 268 294 355 306 280 284 284 289 276 290 263
29 27 26 37 41 46 50 61 65 62 59 61 61 66 80 84 97 85 61 54 29 360 275 30 37 24 346 15 1 359 345 326 287 299 286 292 281 352 308 291 310 291 277 275 299 311 295
24 27 24 26 37 39 42 49 49 50 45 40 52 74 96 105 89 40 30 17 6 26 8 2 351 354 348 317 274 305 329 330 292 312 335 282 331 319 301 306 322 310 13 303 298 291 259
21 18 22 20 21 30 33 28 33 40 39 33 30 36 60 85 107 357 349 350 350 87 66 337 343 313 300 324 320 164 311 304 282 307 351 276 340 326 309 325 340 287 317 286 275 277 278
9 16 12 15 11 12 15 19 17 12 8 7 13 17 12 343 309 312 324 332 46 89 339 351 286 319 331 203 273 308 277 243 260 292 238 258 285 281 267 319 259 292 280 253 257 259 271
0 3 9 5 4 0 358 354 353 351 347 339 330 331 323 310 290 303 319 344 5 79 152 278 317 327 319 292 300 292 301 267 7 336 261 289 237 211 145 289 159 248 319 215 221 194 236
358 355 356 358 356 355 350 344 340 336 335 330 319 293 300 327 324 315 318 291 68 204 195 228 244 285 234 28 169 288 288 255 168 328 288 307 302 207 126 10 316 304 339 330 320 335 302
345 348 347 349 348 345 347 345 336 339 341 341 328 317 294 325 340 14 109 72 255 31 24 308 290 253 163 157 209 306 175 21 15 356 314 349 267 149 183 44 275 70 251 37 290 217 311
338 337 339 341 343 342 339 344 346 337 339 343 338 325 296 334 337 76 30 266 4 12 340 252 294 196 311 10 356 309 199 96 34 302 323 342 297 287 112 218 215 239 330 240 218 297 294
330 330 331 331 335 338 337 336 344 344 339 343 343 319 289 335 328 268 148 304 273 172 167 287 324 296 284 321 302 242 276 126 144 10 291 312 222 281 101 206 114 187 223 213 167 258 231
328 322 321 323 327 332 335 334 336 344 346 342 348 274 281 329 346 249 271 347 334 212 199 267 274 275 279 324 289 273 223 134 127 81 268 67 310 276 263 86 33 307 267 117 115 300 253
317 317 311 314 319 325 332 334 331 339 350 351 336 277 293 285 261 206 167 238 244 204 228 217 249 206 3 273 298 238 310 134 150 204 343 45 243 306 212 6 204 244 210 204 119 269 237
311 305 307 308 313 316 322 327 332 328 346 348 349 318 296 308 285 297 310 243 218 200 263 241 286 244 258 252 208 285 281 133 161 197 138 124 252 211 213 199 163 231 225 190 164 183 266
316 304 302 303 305 305 311 318 324 325 333 352 336 321 293 298 163 312 18 309 235 216 218 206 242 240 279 292 275 222 241 253 171 167 175 207 242 265 268 271 269 250 219 230 204 219 195
311 305 304 301 300 300 299 306 313 322 316 321 272 325 320 275 290 262 195 244 238 193 198 211 235 309 214 248 325 311 358 273 312 163 231 149 280 14 281 260 241 260 244 217 237 228 249
300 301 299 302 302 305 303 301 305 312 317 279 279 307 299 272 233 244 223 229 166 26 229 256 306 323 275 274 298 284 277 276 228 241 240 171 162 3 273 311 313 299 231 208 195 213 221
284 290 290 290 293 297 302 299 299 301 303 272 260 283 267 273 208 236 289 276 273 224 251 195 209 233 248 308 304 275 249 249 250 211 227 298 138 177 276 335 327 247 76 172 210 221 220
281 282 282 283 283 288 289 292 294 293 295 285 267 234 223 266 289 297 276 277 274 266 234 252 250 232 262 325 316 311 241 246 213 202 191 178 316 283 223 274 282 216 215 170 169 274 223
280 284 281 277 282 286 291 287 280 285 286 283 274 243 210 304 246 304 304 286 244 248 198 207 237 238 226 229 242 256 271 294 172 154 7 183 214 163 320 217 262 285 150 105 113 291 210
261 258 269 272 278 282 288 286 281 274 278 278 274 254 225 205 255 268 233 266 206 282 298 156 223 170 174 189 214 225 247 154 238 189 165 184 205 211 212 254 280 187 153 159 177 232 171
264 269 263 270 272 275 276 279 279 278 268 275 272 266 245 225 243 250 240 230 245 237 233 192 4 206 164 209 193 238 229 229 306 194 180 177 167 202 196 209 268 145 119 194 232 105 189
276 275 277 274 268 274 274 270 274 276 271 269 270 267 261 239 253 247 258 261 249 244 246 216 236 183 199 179 230 291 286 212 225 258 196 250 203 214 191 221 213 186 213 232 243 242 255